ソーホー彗星

323P/SOHO (2025)

English version
Home page
Updated on February 9, 2025

---------------------------------------------------------------------

・ プロフィール

・ 軌道要素

Epoch 2025 May 5.0 TT = JDT 2460800.5                                           
T 2025 Mar. 14.23068 TT                                 Pike                    
q   0.0403956            (2000.0)            P               Q                  
n   0.25857643     Peri.  353.32423     +0.73489623     +0.67607040             
a   2.4401139      Node   323.95033     -0.61794263     +0.63506993             
e   0.9834452      Incl.    5.21064     -0.27941805     +0.37365090             
P   3.81                                                                        
From 21 observations 2025 Jan. 27-Feb. 7, mean residual 0".3.                   

・ 星図

・ 光度変化

        H = 21.0  G = 0.15                [   ,-30]  (              〜2025年 2月12日)
        m1 = 24.0 + 5 logΔ + 13.0 log r  [-30, 21]  (2025年 2月12日〜2025年 4月 4日)
        H = 21.0  G = 0.15                [ 21,   ]  (2025年 4月 4日〜              )

---------------------------------------------------------------------

軌道要素はM.P.E.C. 2025-C143に掲載されたものです。
星図はステラナビゲータ Ver.11 (アストロアーツ) で作成したものです。
光度グラフはComet for Windowsで作成したものです。

---------------------------------------------------------------------

Copyright(C) Seiichi Yoshida (comet@aerith.net). All rights reserved.